This is the latest recevied weather packets stored in our database for station/object KE5YIM-13. If no packets are shown the sender has not sent any weather packets the latest 10 day(s).
| Time | Temp. | Humidity | Pressure | Rain* | Wind** | Luminosity | Snow |
|---|---|---|---|---|---|---|---|
| 1777824586 | 10° C | 52% | 1011.2 hPa | 0 mm | - | 254 W/m² | - |
| 1777824283 | 10° C | 52% | 1011.3 hPa | 0 mm | - | 141 W/m² | - |
| 1777823978 | 10.56° C | 50% | 1011.1 hPa | 0 mm | - | 104 W/m² | - |
| 1777823676 | 10.56° C | 48% | 1011 hPa | 0 mm | - | 108 W/m² | - |
| 1777823372 | 11.11° C | 47% | 1011 hPa | 0 mm | - | 196 W/m² | - |
| 1777823071 | 11.67° C | 45% | 1010.9 hPa | 0 mm | - | 306 W/m² | - |
| 1777822768 | 12.78° C | 46% | 1011.1 hPa | 0 mm | - | 975 W/m² | - |
| 1777822466 | 11.67° C | 51% | 1011.3 hPa | 0 mm | - | 826 W/m² | - |
| 1777822163 | 11.11° C | 49% | 1011.5 hPa | 0 mm | - | 470 W/m² | - |
| 1777821860 | 11.67° C | 51% | 1011.3 hPa | 0 mm | - | 439 W/m² | - |
| 1777821557 | 11.67° C | 50% | 1011.3 hPa | 0 mm | - | 524 W/m² | - |
| 1777821256 | 11.67° C | 49% | 1011.1 hPa | 0 mm | - | 970 W/m² | - |
| 1777820952 | 12.22° C | 47% | 1011.1 hPa | 0 mm | - | 907 W/m² | - |
| 1777820649 | 11.67° C | 49% | 1011.1 hPa | 0 mm | - | 822 W/m² | - |
| 1777820345 | 12.78° C | 50% | 1011.1 hPa | 0 mm | - | 813 W/m² | - |
| 1777820043 | 11.11° C | 49% | 1011.2 hPa | 0 mm | - | 808 W/m² | - |
| 1777819739 | 11.67° C | 50% | 1011 hPa | 0 mm | - | 193 W/m² | - |
| 1777819438 | 11.67° C | 48% | 1011.2 hPa | 0 mm | - | 188 W/m² | - |
| 1777819135 | 11.67° C | 49% | 1010.9 hPa | 0 mm | - | 808 W/m² | - |
| 1777818831 | 11.11° C | 53% | 1011.2 hPa | 0 mm | - | 221 W/m² | - |
| 1777818528 | 11.67° C | 52% | 1011.1 hPa | 0 mm | - | 148 W/m² | - |
| 1777818225 | 11.67° C | 50% | 1010.9 hPa | 0 mm | - | 732 W/m² | - |
| 1777817921 | 12.22° C | 50% | 1011 hPa | 0 mm | - | 664 W/m² | - |
| 1777817619 | 11.11° C | 53% | 1011 hPa | 0 mm | - | 638 W/m² | - |
| 1777817315 | 10.56° C | 54% | 1011 hPa | 0 mm | - | 640 W/m² | - |
* Rain latest hour (hover to see other rain measurements)
** Current wind speed in m/s (hover to see current wind gust speed)